Theta_e
353 348 347 342 334 330 330 332 336 338 338 336 337 346 347 345 340 337 336 339 338 337 337 334 329 320 321 325 325 327 328 328 330 330 334 341 342 342 341 334 333 335 338
349 348 345 339 332 330 330 332 335 337 335 334 333 332 333 335 336 337 339 337 335 334 333 332 319 319 323 326 328 327 328 330 330 330 329 334 341 337 330 328 330 332 332
348 348 345 337 332 331 330 331 335 335 334 333 332 331 331 335 337 337 336 334 334 335 333 323 318 322 326 331 331 330 331 340 344 344 340 331 332 331 328 327 332 330 331
347 347 344 336 332 331 331 332 334 333 333 332 330 329 330 331 331 331 332 333 334 330 323 318 319 323 329 331 331 330 337 339 340 339 341 344 334 335 332 331 333 333 329
348 347 344 336 333 332 331 332 334 333 333 331 330 331 334 336 336 334 334 333 328 321 319 316 318 321 326 330 332 332 332 334 335 336 333 338 341 334 337 335 331 332 328
347 347 344 337 333 333 332 332 334 332 332 332 330 331 332 333 334 334 333 329 322 319 318 317 318 321 323 326 328 330 331 332 332 330 331 337 341 335 338 336 332 331 329
348 348 345 339 334 336 333 332 334 334 332 331 330 330 330 330 330 330 326 324 320 319 318 316 316 318 322 325 326 327 327 326 325 323 329 332 340 338 337 337 333 331 330
346 348 346 342 336 336 338 334 333 335 334 331 330 330 329 328 328 327 325 322 319 319 318 317 317 316 316 317 317 318 317 317 318 319 328 330 337 339 338 336 333 333 332
345 346 346 344 340 337 339 340 336 334 336 335 332 331 330 329 329 327 326 323 320 319 318 318 318 318 318 318 318 318 318 318 318 318 325 330 330 338 337 334 333 334 334
346 345 345 345 345 341 340 341 341 338 335 336 336 334 333 332 331 329 327 324 321 320 319 318 318 318 319 318 318 318 318 318 318 318 319 329 331 332 335 332 333 332 334
348 347 346 346 346 345 344 343 343 343 341 336 336 337 336 335 334 331 329 326 323 320 320 319 319 319 319 319 318 318 319 322 325 324 323 326 328 332 332 331 333 329 328
349 348 347 347 346 346 345 345 345 345 345 343 339 338 338 339 337 335 332 330 327 324 322 321 320 319 319 318 318 319 320 324 330 331 330 330 331 332 333 331 332 327 324
350 348 347 347 346 345 345 344 345 346 346 346 345 341 338 339 340 339 336 332 328 325 322 321 320 320 319 318 318 320 325 329 333 337 338 337 337 336 333 332 333 328 325
351 348 346 346 344 344 343 343 343 344 344 345 346 345 342 339 340 342 341 337 332 328 324 322 321 320 319 319 319 320 328 340 342 342 342 343 343 341 337 333 336 332 330
352 351 346 344 343 343 346 343 342 341 344 343 343 345 345 343 341 342 343 342 339 334 329 324 322 322 321 320 320 323 336 344 345 345 345 345 343 341 337 336 338 336 334
348 352 351 346 343 342 344 342 341 339 341 339 340 342 345 346 344 343 344 344 343 339 336 330 326 327 327 324 321 324 336 343 345 345 345 346 346 344 339 338 339 339 338
342 348 351 350 346 341 341 342 340 339 339 340 339 339 342 345 346 346 345 345 344 343 340 338 335 334 335 333 330 323 335 339 342 345 347 348 347 345 342 339 342 341 340
338 344 348 349 346 341 340 340 342 343 343 342 341 340 340 342 342 342 342 342 343 344 341 340 339 337 337 338 335 329 330 338 341 344 347 348 347 347 346 345 345 344 343
327 338 345 348 344 341 342 343 345 346 346 346 345 344 343 343 342 340 339 340 342 342 340 339 340 338 339 341 340 338 337 337 339 342 343 346 347 346 346 346 345 345 345
322 335 343 348 347 346 346 346 346 351 352 352 348 346 345 344 342 342 341 341 342 341 341 341 341 340 340 342 342 342 342 341 340 339 339 344 343 340 346 346 346 343 342
328 338 343 348 347 347 346 344 337 344 347 344 352 351 349 348 348 346 343 341 342 342 341 341 342 342 342 342 341 341 341 340 340 340 341 341 336 333 341 345 346 342 343
332 336 341 344 345 346 343 342 339 338 340 349 349 342 339 342 346 347 347 345 343 342 343 343 341 341 340 340 340 337 338 339 338 338 339 338 337 336 342 346 344 342 341
331 337 340 343 347 342 335 341 348 349 344 339 334 332 331 331 332 332 337 344 345 342 342 342 339 338 340 341 340 339 337 338 335 335 338 340 339 338 339 342 343 342 340
326 334 339 341 335 328 325 328 331 327 327 330 329 329 330 329 327 327 330 333 339 343 342 340 339 329 332 340 341 341 340 337 336 337 334 334 333 330 330 330 333 341 341
323 328 332 330 328 328 330 331 330 329 330 329 329 329 328 328 329 329 330 333 335 338 339 339 338 334 338 340 340 340 339 338 338 336 337 330 329 328 326 328 330 332 339
325 327 329 330 331 330 329 327 326 325 325 326 329 329 327 327 327 329 331 332 334 333 333 334 334 335 336 334 333 338 338 336 333 331 328 328 329 328 326 325 328 330 334
Wind_Speed
18 31 29 27 26 25 25 24 24 24 25 27 29 30 29 26 25 24 24 23 20 18 16 13 11 10 11 12 12 12 12 12 11 10 10 9 9 10 8 10 10 10 10
34 31 30 28 27 25 25 25 24 24 25 24 24 25 25 25 24 24 23 21 19 16 14 12 11 12 13 13 13 12 13 12 11 9 9 8 9 8 8 8 9 9 9
38 32 29 28 26 25 25 25 25 24 23 22 22 23 24 24 23 23 21 19 16 14 12 11 12 13 13 13 12 11 11 10 8 6 5 5 6 6 7 7 7 8 8
38 34 30 28 26 25 25 24 23 23 22 21 22 24 24 23 22 21 20 18 15 14 13 12 13 14 14 12 11 10 11 9 7 3 2 4 4 5 5 5 6 7 8
36 33 31 29 26 25 25 24 23 22 21 21 22 23 22 21 20 19 17 15 14 14 14 14 14 14 14 13 11 10 8 6 5 4 0 4 10 8 7 4 4 6 7
36 33 31 29 27 25 25 24 23 22 21 21 21 21 21 20 18 17 15 14 13 13 13 12 12 12 11 10 9 8 7 6 5 4 2 4 10 10 8 6 5 5 5
35 33 31 29 28 26 25 24 23 22 22 21 21 20 20 18 17 16 14 14 13 12 11 11 10 9 9 9 8 8 8 7 6 5 3 2 10 10 9 8 6 5 5
35 32 30 28 27 26 24 24 24 23 22 22 21 20 19 18 17 16 15 14 13 13 11 10 9 9 9 9 8 8 7 7 8 8 7 4 9 13 12 10 9 8 7
33 32 30 28 26 25 24 24 24 24 23 22 21 20 19 18 17 16 15 14 13 12 12 11 11 10 10 9 9 9 8 8 9 9 10 9 9 14 14 12 11 11 10
32 33 34 33 30 28 26 24 23 23 23 22 20 19 18 17 16 16 16 15 14 13 13 12 11 11 10 10 10 9 9 10 10 10 10 11 8 13 15 14 13 12 13
29 33 34 34 33 30 28 26 24 23 23 23 22 21 19 19 18 17 17 16 15 15 14 14 13 13 12 12 11 11 11 12 12 12 11 12 12 13 16 16 15 13 14
26 34 36 36 35 33 31 29 28 26 25 25 25 24 22 21 19 18 18 17 16 16 16 16 15 14 14 14 13 13 15 13 12 12 12 13 14 16 18 20 16 15 14
25 31 36 36 35 35 35 32 30 27 27 27 27 26 25 23 21 21 20 20 20 20 20 19 18 18 17 17 15 14 15 15 15 15 15 16 18 18 17 18 17 16 15
25 31 35 36 36 35 34 33 32 29 30 29 30 29 28 27 26 24 23 22 22 22 23 22 21 21 21 20 19 16 16 17 17 16 16 16 18 22 21 19 17 16 16
28 29 34 37 37 36 33 33 32 31 31 28 30 32 31 31 30 28 27 25 25 24 26 25 24 24 23 23 21 21 18 18 20 17 17 17 15 16 20 20 18 16 17
32 35 33 36 38 38 35 33 33 31 31 28 29 30 32 33 33 31 30 29 28 27 27 27 27 26 27 26 26 23 22 23 25 23 22 20 18 18 20 19 18 16 17
27 30 35 38 37 37 36 33 31 30 30 31 29 28 30 33 33 31 31 33 33 31 29 27 28 27 28 29 31 27 27 28 28 26 25 24 21 21 20 21 19 18 20
24 26 31 35 36 38 35 32 29 27 28 29 28 28 28 31 30 30 32 35 34 32 31 31 30 30 30 29 29 30 31 30 29 26 25 23 24 24 20 21 22 21 22
27 29 29 30 36 36 31 28 24 24 27 27 29 29 27 27 27 28 31 34 33 31 32 33 31 30 31 30 30 31 32 31 30 28 28 28 27 28 26 23 22 23 23
27 30 30 33 34 34 31 25 20 19 20 20 23 24 25 27 25 29 31 33 31 29 30 32 32 33 34 32 29 30 32 35 34 34 32 32 30 30 29 27 25 26 23
24 31 31 31 31 30 31 28 24 24 19 16 16 16 13 17 19 24 28 30 31 30 34 30 32 34 35 31 25 27 30 30 31 33 35 36 35 33 33 31 29 27 23
30 34 34 34 34 32 29 24 22 27 22 18 10 7 9 9 12 17 22 26 26 28 33 32 29 29 27 26 15 7 4 15 25 30 35 38 41 36 34 31 29 30 25
29 34 37 38 36 30 22 20 19 15 9 6 1 3 6 8 9 11 13 18 25 27 31 16 18 21 24 30 27 12 2 4 8 15 13 9 11 19 27 34 35 32 24
28 30 33 31 26 23 19 16 14 7 5 6 4 4 7 9 10 12 12 14 16 22 28 28 38 38 40 32 24 26 24 10 2 9 11 25 28 29 35 33 33 33 27
22 23 23 25 22 18 14 11 10 10 8 6 4 4 6 7 9 11 12 13 13 16 21 25 31 34 27 30 23 14 9 9 10 3 7 6 18 29 47 48 38 31 32
23 23 23 22 19 16 14 12 10 9 7 5 3 2 5 7 9 10 10 12 15 17 18 19 25 32 34 31 31 21 12 5 5 8 4 5 12 32 42 48 42 32 26
Wind_Direction
176 164 160 159 156 151 148 144 141 138 137 137 140 145 150 152 153 153 152 152 151 151 152 152 152 149 144 140 134 131 131 124 118 119 123 119 111 125 120 110 110 109 110
163 165 161 160 157 153 151 147 144 142 140 139 141 146 151 154 155 154 154 153 152 151 152 154 152 147 145 143 138 138 135 131 129 119 116 123 124 123 120 110 112 114 115
162 164 162 161 159 155 153 151 149 147 145 143 146 148 149 151 152 154 154 153 154 155 157 157 154 151 151 150 150 149 149 141 134 126 125 133 142 144 127 111 114 119 120
163 164 163 162 161 157 156 155 153 153 152 150 151 151 151 151 154 156 157 158 160 163 163 161 161 162 161 162 162 158 153 149 140 140 192 208 179 173 146 118 123 130 129
165 165 164 164 164 161 161 159 159 160 160 159 158 158 158 158 160 161 164 167 169 170 168 169 170 172 172 172 171 172 175 175 167 159 154 239 205 206 179 164 155 148 141
167 168 167 167 168 165 166 166 165 166 167 167 166 167 168 168 170 172 175 176 177 176 176 177 177 178 180 182 183 189 195 201 212 216 260 234 207 219 202 200 190 173 158
168 171 170 171 172 171 171 172 172 173 174 175 175 176 176 177 180 182 185 186 186 185 187 187 187 188 191 194 200 203 208 217 232 239 252 253 217 235 224 222 219 208 186
170 173 172 174 177 177 177 178 181 181 181 183 184 184 185 186 188 191 195 195 194 194 195 197 200 203 208 212 213 219 220 223 232 233 223 259 230 234 239 235 234 228 216
173 173 176 179 183 185 185 187 188 190 190 191 192 193 193 194 196 200 204 207 207 209 210 210 211 214 218 226 229 231 236 233 237 235 222 234 239 230 237 234 240 239 233
178 178 181 183 187 190 192 195 196 198 200 200 201 202 203 205 207 209 212 215 217 218 220 224 225 230 236 240 250 257 262 264 261 257 239 238 247 232 236 241 239 240 239
183 187 188 187 190 192 195 198 203 206 208 208 209 210 210 212 215 218 224 226 228 231 235 234 235 238 240 249 256 262 265 269 270 262 244 240 246 242 247 248 250 244 234
192 194 194 194 194 194 197 201 204 207 210 213 214 215 216 221 223 227 230 235 239 243 245 252 252 252 253 255 256 263 270 276 275 267 260 253 255 255 261 251 255 250 240
195 199 199 199 199 198 199 200 206 208 213 216 218 218 220 224 228 231 235 235 237 241 245 245 250 253 258 260 261 265 267 275 275 275 271 271 268 263 261 249 258 254 243
203 204 205 204 204 203 204 203 206 207 212 213 220 220 222 225 228 232 237 243 244 247 248 251 254 257 258 261 266 268 267 269 271 272 276 277 275 261 251 244 253 252 249
211 214 212 207 208 208 208 208 211 212 214 216 219 221 223 226 230 234 237 242 249 251 254 254 254 259 261 265 265 268 260 263 267 266 262 260 257 251 241 241 251 256 258
212 219 217 213 211 210 211 215 217 219 221 224 227 226 226 231 233 236 241 244 247 250 255 257 260 262 267 269 271 267 265 261 262 263 262 263 257 259 247 246 257 262 269
205 215 216 214 213 210 214 220 225 225 229 231 234 234 236 237 240 243 248 251 252 253 256 258 260 263 267 268 267 268 264 263 267 270 276 285 281 276 265 260 269 271 270
210 212 217 210 208 209 212 220 227 229 230 235 240 242 244 247 246 250 254 256 256 256 257 256 258 263 266 269 269 265 266 271 275 277 280 280 276 276 272 269 272 272 272
213 213 211 208 208 208 210 214 223 235 239 244 247 249 254 254 253 253 256 259 258 257 257 254 256 257 261 267 274 277 276 274 272 270 271 274 274 274 272 274 274 275 275
210 209 208 203 207 211 212 216 223 229 239 247 250 253 255 259 263 260 259 265 264 261 261 256 254 255 256 262 269 274 279 279 277 271 269 270 270 273 270 271 271 273 272
199 204 204 202 207 202 208 216 228 228 231 247 249 258 276 277 284 273 265 262 264 268 262 264 259 255 254 256 263 270 274 276 277 274 270 271 276 273 271 266 267 272 274
195 197 200 205 206 206 210 222 218 224 233 235 247 280 289 299 290 279 276 270 267 265 267 259 252 260 264 256 237 234 283 281 276 272 270 271 274 275 269 266 268 271 272
197 199 200 202 203 203 208 212 204 193 195 180 176 351 339 332 329 328 314 285 275 260 253 250 288 295 284 281 263 230 278 238 299 274 289 319 326 324 319 298 281 269 264
205 200 202 198 192 195 193 190 190 172 128 108 70 10 358 353 346 340 329 310 296 281 265 252 237 246 250 258 257 257 255 260 280 300 284 303 299 312 314 313 322 288 264
183 180 182 188 188 196 189 180 146 116 101 86 59 357 352 1 0 353 342 329 321 301 284 274 255 239 244 248 251 250 226 245 256 249 269 296 277 280 273 281 291 309 271
154 153 157 154 144 143 145 143 137 132 141 149 161 262 316 328 339 349 339 331 327 327 312 292 278 261 255 254 261 253 235 172 180 241 217 228 247 251 239 262 259 274 286